Time,TemperatureF,DewpointF,PressureIn,WindDirection,WindDirectionDegrees,WindSpeedMPH,WindSpeedGustMPH,Humidity,HourlyPrecipIn,Conditions,Clouds,dailyrainin,SoftwareType,DateUTC
2013-10-22 00:22:00,37.0,-99.9,-100.00,NE,35,0.0,0.0,-999,-99.99,,,-99.99,,2013-10-22 08:22:00,
2013-10-22 00:32:00,37.0,-99.9,-100.00,NE,35,0.0,0.0,-999,-99.99,,,-99.99,,2013-10-22 08:32:00,
2013-10-22 00:42:00,37.0,-99.9,-100.00,NE,35,0.0,0.0,-999,-99.99,,,-99.99,,2013-10-22 08:42:00,
2013-10-22 00:52:00,37.0,-99.9,-100.00,NE,35,0.0,0.0,-999,-99.99,,,-99.99,,2013-10-22 08:52:00,
2013-10-22 01:22:00,37.0,-99.9,-100.00,NE,35,0.0,0.0,-999,-99.99,,,-99.99,,2013-10-22 09:22:00,
2013-10-22 01:33:00,37.0,-99.9,-100.00,NE,35,0.0,0.0,-999,-99.99,,,-99.99,,2013-10-22 09:33:00,
2013-10-22 01:43:00,37.0,-99.9,-100.00,NE,35,0.0,0.0,-999,-99.99,,,-99.99,,2013-10-22 09:43:00,
2013-10-22 01:54:00,37.0,-99.9,-100.00,NE,35,0.0,0.0,-999,-99.99,,,-99.99,,2013-10-22 09:54:00,
2013-10-22 02:23:00,36.0,-99.9,-100.00,NNE,15,0.0,0.0,-999,-99.99,,,-99.99,,2013-10-22 10:23:00,
2013-10-22 02:33:00,36.0,-99.9,-100.00,NNE,15,0.0,0.0,-999,-99.99,,,-99.99,,2013-10-22 10:33:00,
2013-10-22 02:43:00,36.0,-99.9,-100.00,NNE,15,0.0,0.0,-999,-99.99,,,-99.99,,2013-10-22 10:43:00,
2013-10-22 02:54:00,36.0,-99.9,-100.00,NNE,15,0.0,0.0,-999,-99.99,,,-99.99,,2013-10-22 10:54:00,
2013-10-22 03:22:00,33.0,-99.9,-100.00,ESE,121,5.0,5.0,-999,-99.99,,,-99.99,,2013-10-22 11:22:00,
2013-10-22 03:33:00,33.0,-99.9,-100.00,ESE,121,5.0,5.0,-999,-99.99,,,-99.99,,2013-10-22 11:33:00,
2013-10-22 03:53:00,33.0,-99.9,-100.00,ESE,121,5.0,5.0,-999,-99.99,,,-99.99,,2013-10-22 11:53:00,
2013-10-22 05:22:00,36.0,-99.9,-100.00,East,86,0.0,0.0,-999,-99.99,,,-99.99,,2013-10-22 13:22:00,
2013-10-22 05:32:00,36.0,-99.9,-100.00,East,86,0.0,0.0,-999,-99.99,,,-99.99,,2013-10-22 13:32:00,
2013-10-22 05:42:00,36.0,-99.9,-100.00,East,86,0.0,0.0,-999,-99.99,,,-99.99,,2013-10-22 13:42:00,
2013-10-22 05:53:00,36.0,-99.9,-100.00,East,86,0.0,0.0,-999,-99.99,,,-99.99,,2013-10-22 13:53:00,
2013-10-22 06:22:00,35.0,-99.9,-100.00,NE,45,0.0,0.0,-999,-99.99,,,-99.99,,2013-10-22 14:22:00,
2013-10-22 06:32:00,35.0,-99.9,-100.00,NE,45,0.0,0.0,-999,-99.99,,,-99.99,,2013-10-22 14:32:00,
2013-10-22 06:42:00,35.0,-99.9,-100.00,NE,45,0.0,0.0,-999,-99.99,,,-99.99,,2013-10-22 14:42:00,
2013-10-22 06:52:00,35.0,-99.9,-100.00,NE,45,0.0,0.0,-999,-99.99,,,-99.99,,2013-10-22 14:52:00,
2013-10-22 06:54:00,33.0,-99.9,-100.00,NE,45,0.0,0.0,-999,-99.99,,,-99.99,,2013-10-22 14:54:00,
2013-10-22 07:22:00,33.0,-99.9,-100.00,NE,45,0.0,0.0,-999,-99.99,,,-99.99,,2013-10-22 15:22:00,
2013-10-22 07:33:00,33.0,-99.9,-100.00,NE,45,0.0,0.0,-999,-99.99,,,-99.99,,2013-10-22 15:33:00,
2013-10-22 08:23:00,34.0,-99.9,-100.00,ENE,70,0.0,0.0,-999,-99.99,,,-99.99,,2013-10-22 16:23:00,
2013-10-22 08:33:00,34.0,-99.9,-100.00,ENE,70,0.0,0.0,-999,-99.99,,,-99.99,,2013-10-22 16:33:00,
2013-10-22 08:53:00,34.0,-99.9,-100.00,ENE,70,0.0,0.0,-999,-99.99,,,-99.99,,2013-10-22 16:53:00,
2013-10-22 10:22:00,35.0,-99.9,-100.00,ENE,70,0.0,0.0,-999,-99.99,,,-99.99,,2013-10-22 18:22:00,
2013-10-22 10:32:00,35.0,-99.9,-100.00,ENE,70,0.0,0.0,-999,-99.99,,,-99.99,,2013-10-22 18:32:00,
2013-10-22 10:42:00,35.0,-99.9,-100.00,ENE,70,0.0,0.0,-999,-99.99,,,-99.99,,2013-10-22 18:42:00,
2013-10-22 10:52:00,35.0,-99.9,-100.00,ENE,70,0.0,0.0,-999,-99.99,,,-99.99,,2013-10-22 18:52:00,
2013-10-22 12:23:00,39.0,-99.9,-100.00,ENE,70,0.0,0.0,-999,-99.99,,,-99.99,,2013-10-22 20:23:00,
2013-10-22 12:32:00,39.0,-99.9,-100.00,ENE,70,0.0,0.0,-999,-99.99,,,-99.99,,2013-10-22 20:32:00,
2013-10-22 12:43:00,39.0,-99.9,-100.00,ENE,70,0.0,0.0,-999,-99.99,,,-99.99,,2013-10-22 20:43:00,
2013-10-22 12:52:00,39.0,-99.9,-100.00,ENE,70,0.0,0.0,-999,-99.99,,,-99.99,,2013-10-22 20:52:00,
2013-10-22 12:54:00,42.0,-99.9,-100.00,WNW,295,0.0,3.0,-999,-99.99,,,-99.99,,2013-10-22 20:54:00,
2013-10-22 13:23:00,42.0,-99.9,-100.00,WNW,295,0.0,3.0,-999,-99.99,,,-99.99,,2013-10-22 21:23:00,
2013-10-22 13:34:00,42.0,-99.9,-100.00,WNW,295,0.0,3.0,-999,-99.99,,,-99.99,,2013-10-22 21:34:00,
2013-10-22 13:44:00,42.0,-99.9,-100.00,WNW,295,0.0,3.0,-999,-99.99,,,-99.99,,2013-10-22 21:44:00,
2013-10-22 14:24:00,43.0,-99.9,-100.00,North,11,3.0,5.0,-999,-99.99,,,-99.99,,2013-10-22 22:24:00,
2013-10-22 14:33:00,43.0,-99.9,-100.00,North,11,3.0,5.0,-999,-99.99,,,-99.99,,2013-10-22 22:33:00,
2013-10-22 14:44:00,43.0,-99.9,-100.00,North,11,3.0,5.0,-999,-99.99,,,-99.99,,2013-10-22 22:44:00,
2013-10-22 14:54:00,43.0,-99.9,-100.00,North,11,3.0,5.0,-999,-99.99,,,-99.99,,2013-10-22 22:54:00,
2013-10-22 15:23:00,45.0,-99.9,-100.00,NE,35,2.0,9.0,-999,-99.99,,,-99.99,,2013-10-22 23:23:00,
2013-10-22 15:34:00,45.0,-99.9,-100.00,NE,35,2.0,9.0,-999,-99.99,,,-99.99,,2013-10-22 23:34:00,
2013-10-22 15:43:00,45.0,-99.9,-100.00,NE,35,2.0,9.0,-999,-99.99,,,-99.99,,2013-10-22 23:43:00,
2013-10-22 15:53:00,45.0,-99.9,-100.00,NE,35,2.0,9.0,-999,-99.99,,,-99.99,,2013-10-22 23:53:00,
2013-10-22 17:23:00,45.0,-99.9,-100.00,North,4,1.0,9.0,-999,-99.99,,,-99.99,,2013-10-23 01:23:00,
2013-10-22 17:32:00,45.0,-99.9,-100.00,North,4,1.0,9.0,-999,-99.99,,,-99.99,,2013-10-23 01:32:00,
2013-10-22 17:42:00,45.0,-99.9,-100.00,North,4,1.0,9.0,-999,-99.99,,,-99.99,,2013-10-23 01:42:00,
2013-10-22 17:53:00,45.0,-99.9,-100.00,North,4,1.0,9.0,-999,-99.99,,,-99.99,,2013-10-23 01:53:00,
2013-10-22 18:22:00,40.0,-99.9,-100.00,North,7,0.0,0.0,-999,-99.99,,,-99.99,,2013-10-23 02:22:00,
2013-10-22 18:32:00,40.0,-99.9,-100.00,North,7,0.0,0.0,-999,-99.99,,,-99.99,,2013-10-23 02:32:00,
2013-10-22 18:42:00,40.0,-99.9,-100.00,North,7,0.0,0.0,-999,-99.99,,,-99.99,,2013-10-23 02:42:00,
2013-10-22 18:54:00,40.0,-99.9,-100.00,North,7,0.0,0.0,-999,-99.99,,,-99.99,,2013-10-23 02:54:00,
2013-10-22 18:55:00,33.0,-99.9,-100.00,North,7,0.0,0.0,-999,-99.99,,,-99.99,,2013-10-23 02:55:00,
2013-10-22 19:22:00,33.0,-99.9,-100.00,North,7,0.0,0.0,-999,-99.99,,,-99.99,,2013-10-23 03:22:00,
2013-10-22 19:34:00,33.0,-99.9,-100.00,North,7,0.0,0.0,-999,-99.99,,,-99.99,,2013-10-23 03:34:00,
2013-10-22 21:23:00,27.0,-99.9,-100.00,North,7,0.0,0.0,-999,-99.99,,,-99.99,,2013-10-23 05:23:00,
2013-10-22 21:34:00,27.0,-99.9,-100.00,North,7,0.0,0.0,-999,-99.99,,,-99.99,,2013-10-23 05:34:00,
2013-10-22 21:53:00,27.0,-99.9,-100.00,North,7,0.0,0.0,-999,-99.99,,,-99.99,,2013-10-23 05:53:00,
2013-10-22 22:22:00,26.0,-99.9,-100.00,North,7,0.0,0.0,-999,-99.99,,,-99.99,,2013-10-23 06:22:00,
2013-10-22 22:32:00,26.0,-99.9,-100.00,North,7,0.0,0.0,-999,-99.99,,,-99.99,,2013-10-23 06:32:00,
2013-10-22 22:52:00,26.0,-99.9,-100.00,North,7,0.0,0.0,-999,-99.99,,,-99.99,,2013-10-23 06:52:00,
2013-10-22 23:22:00,26.0,-99.9,-100.00,North,7,0.0,0.0,-999,-99.99,,,-99.99,,2013-10-23 07:22:00,
2013-10-22 23:32:00,26.0,-99.9,-100.00,North,7,0.0,0.0,-999,-99.99,,,-99.99,,2013-10-23 07:32:00,
2013-10-22 23:52:00,26.0,-99.9,-100.00,North,7,0.0,0.0,-999,-99.99,,,-99.99,,2013-10-23 07:52:00,